TimeCDT,TemperatureF,Dew PointF,Humidity,Sea Level PressureIn,VisibilityMPH,Wind Direction,Wind SpeedMPH,Gust SpeedMPH,PrecipitationIn,Events,Conditions,WindDirDegrees,DateUTC
12:56 AM,55.9,46.0,69,29.22,-9999.0,South,6.9,-,N/A,,Unknown,180,2012-10-17 05:56:00
1:56 AM,55.0,48.0,77,29.22,-9999.0,SSW,8.1,-,N/A,,Unknown,210,2012-10-17 06:56:00
2:56 AM,54.0,52.0,93,29.22,-9999.0,SW,3.5,-,0.05,,Unknown,230,2012-10-17 07:56:00
3:56 AM,53.1,52.0,96,29.17,-9999.0,NW,3.5,-,0.02,,Unknown,320,2012-10-17 08:56:00
4:56 AM,53.1,53.1,100,29.16,-9999.0,NW,8.1,-,0.05,,Unknown,320,2012-10-17 09:56:00
5:56 AM,55.0,54.0,96,29.17,-9999.0,WNW,10.4,-,0.13,,Unknown,300,2012-10-17 10:56:00
6:56 AM,51.1,48.9,92,29.17,-9999.0,NNW,27.6,44.9,0.23,,Unknown,330,2012-10-17 11:56:00
7:56 AM,50.0,46.9,89,29.18,-9999.0,NW,20.7,27.6,0.11,,Unknown,320,2012-10-17 12:56:00
8:56 AM,50.0,46.0,86,29.20,-9999.0,NW,12.7,20.7,0.04,,Unknown,320,2012-10-17 13:56:00
9:56 AM,48.9,45.0,86,29.21,-9999.0,WNW,19.6,27.6,0.01,,Unknown,300,2012-10-17 14:56:00
10:56 AM,48.0,44.1,86,29.21,-9999.0,WNW,18.4,26.5,N/A,,Unknown,290,2012-10-17 15:56:00
11:56 AM,51.1,45.0,80,29.20,-9999.0,WNW,23.0,29.9,N/A,,Unknown,300,2012-10-17 16:56:00
12:56 PM,51.1,46.0,83,29.20,-9999.0,NW,20.7,-,N/A,,Unknown,310,2012-10-17 17:56:00
1:56 PM,48.9,43.0,80,29.22,-9999.0,NW,24.2,33.4,N/A,,Unknown,320,2012-10-17 18:56:00
2:56 PM,48.0,41.0,77,29.23,-9999.0,NW,21.9,38.0,N/A,,Unknown,310,2012-10-17 19:56:00
3:56 PM,46.9,39.0,74,29.25,-9999.0,NW,25.3,38.0,N/A,,Unknown,320,2012-10-17 20:56:00
4:56 PM,46.9,39.0,74,29.26,-9999.0,NW,31.1,39.1,N/A,,Unknown,320,2012-10-17 21:56:00
5:56 PM,45.0,39.9,82,29.29,-9999.0,NW,24.2,38.0,N/A,,Unknown,320,2012-10-17 22:56:00
6:56 PM,44.1,39.9,85,29.31,-9999.0,NW,24.2,29.9,N/A,,Unknown,320,2012-10-17 23:56:00
7:56 PM,43.0,41.0,93,29.31,-9999.0,NW,21.9,33.4,0.02,,Unknown,310,2012-10-18 00:56:00
8:56 PM,44.1,39.0,82,29.32,-9999.0,NW,26.5,32.2,N/A,,Unknown,310,2012-10-18 01:56:00
9:56 PM,43.0,39.0,86,29.32,-9999.0,NW,21.9,35.7,N/A,,Unknown,320,2012-10-18 02:56:00
10:56 PM,43.0,39.0,86,29.31,-9999.0,NW,24.2,31.1,0.01,,Unknown,320,2012-10-18 03:56:00
11:56 PM,42.1,39.0,89,29.28,-9999.0,NW,24.2,31.1,0.01,,Unknown,320,2012-10-18 04:56:00